Retour au catalogue

COSMOS 1818 COOLANT

ActifLEO
NORAD 36935·DEBRIS·🇷🇺 Russia

Lancé Feb 1, 1987 depuis Baikonur Cosmodrome

Loading…

Prochains Passages (prochaines 24 heures)

TLE

PériméSource: Space-Track

Époque: Sep 6, 2026, 09:52 UTC

1 36935U 87011P   26249.41122996  .00000448  00000-0  16948-3 0  9997
2 36935  65.0063 293.0424 0020447 280.8593  79.0195 14.41273743353394

Suivez COSMOS 1818 COOLANT en temps réel avec AllMySat

Download on the App Store